TimeCST,TemperatureF,Dew PointF,Humidity,Sea Level PressureIn,VisibilityMPH,Wind Direction,Wind SpeedMPH,Gust SpeedMPH,PrecipitationIn,Events,Conditions,WindDirDegrees,DateUTC
12:15 AM,10.4,1.4,67,30.60,7.0,North,-9999.0,-,N/A,Snow,Light Snow,0,2014-02-06 06:15:00
12:35 AM,10.4,1.4,67,30.59,4.0,North,-9999.0,-,N/A,Snow,Light Snow,0,2014-02-06 06:35:00
12:55 AM,8.6,3.2,79,30.60,4.0,North,13.8,-,N/A,Snow,Light Snow,10,2014-02-06 06:55:00
1:15 AM,8.6,3.2,79,30.60,3.0,North,12.7,-,N/A,Snow,Light Snow,10,2014-02-06 07:15:00
1:35 AM,8.6,3.2,79,30.61,3.0,North,9.2,-,N/A,Snow,Light Snow,10,2014-02-06 07:35:00
1:55 AM,8.6,3.2,79,30.60,2.5,NNE,15.0,-,N/A,Snow,Light Snow,20,2014-02-06 07:55:00
2:15 AM,8.6,3.2,79,30.59,2.5,North,-9999.0,-,N/A,Snow,Light Snow,0,2014-02-06 08:15:00
2:35 AM,8.6,3.2,79,30.59,3.0,North,-9999.0,-,N/A,Snow,Light Snow,0,2014-02-06 08:35:00
2:55 AM,8.6,3.2,79,30.59,4.0,North,-9999.0,-,N/A,Snow,Light Snow,0,2014-02-06 08:55:00
3:15 AM,8.6,3.2,79,30.59,2.0,North,11.5,-,N/A,Snow,Light Snow,10,2014-02-06 09:15:00
3:35 AM,8.6,3.2,79,30.59,3.0,North,-9999.0,-,N/A,Snow,Light Snow,0,2014-02-06 09:35:00
3:55 AM,8.6,1.4,73,30.59,3.0,North,-9999.0,-,N/A,Snow,Light Snow,0,2014-02-06 09:55:00
4:15 AM,8.6,1.4,73,30.58,3.0,North,-9999.0,-,N/A,Snow,Light Snow,0,2014-02-06 10:15:00
4:35 AM,8.6,3.2,79,30.57,2.5,North,-9999.0,-,N/A,Snow,Light Snow,0,2014-02-06 10:35:00
4:55 AM,8.6,1.4,73,30.57,3.0,North,-9999.0,-,N/A,Snow,Light Snow,0,2014-02-06 10:55:00
5:15 AM,8.6,1.4,73,30.57,5.0,North,-9999.0,-,N/A,Snow,Light Snow,0,2014-02-06 11:15:00
5:35 AM,8.6,1.4,73,30.56,4.0,North,-9999.0,-,N/A,Snow,Light Snow,0,2014-02-06 11:35:00
5:55 AM,8.6,1.4,73,30.57,4.0,North,-9999.0,-,N/A,Snow,Light Snow,0,2014-02-06 11:55:00
6:15 AM,8.6,1.4,73,30.57,7.0,North,-9999.0,-,N/A,,Overcast,0,2014-02-06 12:15:00
6:35 AM,8.6,1.4,73,30.57,4.0,North,-9999.0,-,N/A,Snow,Light Snow,0,2014-02-06 12:35:00
6:55 AM,6.8,1.4,79,30.57,5.0,North,-9999.0,-,N/A,Snow,Light Snow,0,2014-02-06 12:55:00
7:15 AM,6.8,-0.4,72,30.57,10.0,North,-9999.0,-,N/A,,Scattered Clouds,0,2014-02-06 13:15:00
7:35 AM,6.8,-0.4,72,30.57,10.0,North,-9999.0,-,N/A,,Clear,0,2014-02-06 13:35:00
7:55 AM,6.8,-0.4,72,30.57,10.0,North,-9999.0,-,N/A,,Scattered Clouds,0,2014-02-06 13:55:00
8:15 AM,8.6,1.4,73,30.58,10.0,North,-9999.0,-,N/A,,Mostly Cloudy,0,2014-02-06 14:15:00
8:35 AM,8.6,-0.4,67,30.58,10.0,North,-9999.0,-,N/A,,Overcast,0,2014-02-06 14:35:00
8:55 AM,8.6,-0.4,67,30.58,10.0,North,-9999.0,-,N/A,,Overcast,0,2014-02-06 14:55:00
9:15 AM,8.6,1.4,73,30.57,10.0,North,-9999.0,-,N/A,,Overcast,0,2014-02-06 15:15:00
9:35 AM,8.6,1.4,73,30.57,10.0,North,-9999.0,-,N/A,,Overcast,0,2014-02-06 15:35:00
9:55 AM,8.6,1.4,73,30.58,10.0,North,-9999.0,-,N/A,,Overcast,0,2014-02-06 15:55:00
10:15 AM,8.6,1.4,73,30.58,10.0,North,-9999.0,-,N/A,,Overcast,0,2014-02-06 16:15:00
10:35 AM,10.4,1.4,67,30.59,10.0,North,-9999.0,-,N/A,,Overcast,0,2014-02-06 16:35:00
10:55 AM,10.4,1.4,67,30.58,10.0,NE,10.4,-,N/A,,Overcast,40,2014-02-06 16:55:00
11:15 AM,10.4,1.4,67,30.58,10.0,NE,9.2,-,N/A,,Overcast,40,2014-02-06 17:15:00
11:35 AM,10.4,1.4,67,30.58,10.0,NNE,9.2,-,N/A,,Overcast,20,2014-02-06 17:35:00
11:55 AM,10.4,1.4,67,30.58,10.0,NE,8.1,-,N/A,,Overcast,40,2014-02-06 17:55:00
12:15 PM,10.4,3.2,73,30.55,10.0,NE,9.2,-,N/A,,Overcast,40,2014-02-06 18:15:00
12:35 PM,12.2,3.2,67,30.53,10.0,ENE,6.9,-,N/A,,Overcast,60,2014-02-06 18:35:00
12:55 PM,12.2,3.2,67,30.53,10.0,NE,8.1,-,N/A,,Overcast,40,2014-02-06 18:55:00
1:15 PM,12.2,3.2,67,30.51,10.0,NE,5.8,-,N/A,,Overcast,50,2014-02-06 19:15:00
1:35 PM,12.2,3.2,67,30.49,10.0,NE,6.9,-,N/A,,Overcast,40,2014-02-06 19:35:00
1:55 PM,12.2,3.2,67,30.47,10.0,ENE,10.4,-,N/A,,Overcast,60,2014-02-06 19:55:00
2:15 PM,12.2,3.2,67,30.46,10.0,NE,4.6,-,N/A,,Overcast,50,2014-02-06 20:15:00
2:35 PM,12.2,3.2,67,30.46,10.0,NE,9.2,-,N/A,,Overcast,50,2014-02-06 20:35:00
2:55 PM,12.2,3.2,67,30.45,10.0,ENE,5.8,-,N/A,,Overcast,60,2014-02-06 20:55:00
3:15 PM,12.2,3.2,67,30.44,10.0,NE,9.2,-,N/A,,Overcast,50,2014-02-06 21:15:00
3:35 PM,12.2,3.2,67,30.44,10.0,ENE,8.1,-,N/A,,Overcast,70,2014-02-06 21:35:00
3:55 PM,12.2,3.2,67,30.44,10.0,NE,4.6,-,N/A,,Overcast,50,2014-02-06 21:55:00
4:15 PM,12.2,3.2,67,30.44,10.0,NE,5.8,-,N/A,,Overcast,50,2014-02-06 22:15:00
4:35 PM,12.2,3.2,67,30.43,10.0,East,5.8,-,N/A,,Overcast,80,2014-02-06 22:35:00
4:55 PM,12.2,3.2,67,30.43,10.0,ENE,5.8,-,N/A,,Overcast,70,2014-02-06 22:55:00
5:15 PM,12.2,3.2,67,30.43,10.0,ENE,5.8,-,N/A,,Overcast,60,2014-02-06 23:15:00
5:35 PM,12.2,5.0,73,30.43,10.0,NNE,8.1,-,N/A,,Overcast,30,2014-02-06 23:35:00
5:55 PM,12.2,5.0,73,30.41,10.0,ENE,8.1,-,N/A,,Overcast,60,2014-02-06 23:55:00
6:15 PM,12.2,3.2,67,30.41,10.0,ENE,8.1,-,N/A,,Scattered Clouds,60,2014-02-07 00:15:00
6:35 PM,12.2,3.2,67,30.43,10.0,East,5.8,-,N/A,,Clear,80,2014-02-07 00:35:00
6:55 PM,10.4,3.2,73,30.44,10.0,East,3.5,-,N/A,,Clear,80,2014-02-07 00:55:00
7:15 PM,10.4,3.2,73,30.43,10.0,ENE,4.6,-,N/A,,Clear,60,2014-02-07 01:15:00
7:35 PM,10.4,3.2,73,30.43,10.0,ENE,5.8,-,N/A,,Clear,60,2014-02-07 01:35:00
7:55 PM,10.4,3.2,73,30.43,10.0,ENE,5.8,-,N/A,,Clear,60,2014-02-07 01:55:00
8:15 PM,10.4,3.2,73,30.41,10.0,ENE,5.8,-,N/A,,Clear,60,2014-02-07 02:15:00
8:35 PM,10.4,3.2,73,30.41,10.0,NE,5.8,-,N/A,,Clear,50,2014-02-07 02:35:00
8:55 PM,10.4,3.2,73,30.42,10.0,NE,5.8,-,N/A,,Clear,50,2014-02-07 02:55:00
9:15 PM,10.4,3.2,73,30.40,10.0,North,-9999.0,-,N/A,,Clear,0,2014-02-07 03:15:00
9:35 PM,10.4,3.2,73,30.39,10.0,NE,6.9,-,N/A,,Clear,50,2014-02-07 03:35:00
9:55 PM,10.4,3.2,73,30.40,10.0,North,-9999.0,-,N/A,,Scattered Clouds,0,2014-02-07 03:55:00
10:15 PM,10.4,3.2,73,30.40,10.0,ENE,4.6,-,N/A,,Overcast,60,2014-02-07 04:15:00
10:35 PM,10.4,3.2,73,30.40,10.0,ENE,6.9,-,N/A,,Overcast,60,2014-02-07 04:35:00
10:55 PM,10.4,3.2,73,30.40,10.0,North,-9999.0,-,N/A,,Overcast,0,2014-02-07 04:55:00
11:15 PM,10.4,3.2,73,30.39,10.0,East,5.8,-,N/A,,Overcast,90,2014-02-07 05:15:00
11:35 PM,10.4,3.2,73,30.39,10.0,East,4.6,-,N/A,,Overcast,100,2014-02-07 05:35:00
11:55 PM,10.4,3.2,73,30.38,10.0,East,4.6,-,N/A,,Overcast,90,2014-02-07 05:55:00